When you browse on this site, cookies collect data to enhance your experience and personalize the content and advertising you see.
Visit our Privacy Policy to learn more. By continuing to use the site, you agree to this use of cookies and data.
EN

Hourly Weather Oruro

Today, 6 July, Monday

Time Temperature Precipitation Wind Pressure Humidity
00:00 +4°C° 0 mm 1 mps 473 mmHg 42%
01:00 +4°C° 0 mm 1 mps 472 mmHg 46%
02:00 +3°C° 0 mm 1 mps 472 mmHg 50%
03:00 +3°C° 0 mm 1 mps 471 mmHg 57%
04:00 +2°C° 0 mm 2 mps 471 mmHg 65%
05:00 +1°C° 0 mm 2 mps 471 mmHg 73%
06:00 +2°C° 0 mm 2 mps 472 mmHg 71%
07:00 +2°C° 0 mm 2 mps 472 mmHg 69%
08:00 +3°C° 0 mm 2 mps 473 mmHg 67%
09:00 +5°C° 0 mm 2 mps 474 mmHg 56%
10:00 +7°C° 0 mm 3 mps 476 mmHg 45%
11:00 +10°C° 0 mm 3 mps 477 mmHg 35%
12:00 +11°C° 0 mm 4 mps 478 mmHg 32%
13:00 +13°C° 0 mm 6 mps 478 mmHg 28%
14:00 +14°C° 0 mm 7 mps 478 mmHg 25%
15:00 +14°C° 0 mm 7 mps 478 mmHg 27%
16:00 +14°C° 0 mm 7 mps 477 mmHg 29%
17:00 +12°C° 0 mm 8 mps 477 mmHg 32%
18:00 +10°C° 0 mm 6 mps 476 mmHg 36%
19:00 +8°C° 0 mm 5 mps 475 mmHg 40%
20:00 +7°C° 0 mm 3 mps 475 mmHg 45%
21:00 +7°C° 0 mm 3 mps 475 mmHg 51%
22:00 +5°C° 0 mm 3 mps 475 mmHg 57%
23:00 +5°C° 0 mm 2 mps 475 mmHg 63%

Tomorrow, 7 July, Tuesday

Time Temperature Precipitation Wind Pressure Humidity
00:00 +4°C° 0 mm 3 mps 474 mmHg 62%
01:00 +3°C° 0 mm 3 mps 474 mmHg 62%
02:00 +3°C° 0 mm 3 mps 473 mmHg 61%
03:00 +2°C° 0 mm 3 mps 472 mmHg 58%
04:00 +2°C° 0 mm 2 mps 472 mmHg 56%
05:00 +1°C° 0 mm 2 mps 471 mmHg 53%
06:00 +1°C° 0 mm 3 mps 472 mmHg 53%
07:00 +1°C° 0 mm 3 mps 472 mmHg 53%
08:00 0°C° 0 mm 4 mps 473 mmHg 53%
09:00 +3°C° 0 mm 6 mps 474 mmHg 41%
10:00 +6°C° 0 mm 8 mps 476 mmHg 29%
11:00 +9°C° 0 mm 11 mps 477 mmHg 18%
12:00 +11°C° 0 mm 11 mps 477 mmHg 16%
13:00 +11°C° 0 mm 11 mps 477 mmHg 14%
14:00 +12°C° 0 mm 11 mps 477 mmHg 12%
15:00 +12°C° 0 mm 11 mps 477 mmHg 11%
16:00 +12°C° 0 mm 11 mps 477 mmHg 10%
17:00 +11°C° 0 mm 11 mps 476 mmHg 9%
18:00 +7°C° 0 mm 8 mps 475 mmHg 11%
19:00 +5°C° 0 mm 6 mps 474 mmHg 14%
20:00 +3°C° 0 mm 3 mps 473 mmHg 17%
21:00 +2°C° 0 mm 3 mps 472 mmHg 18%
22:00 +2°C° 0 mm 2 mps 472 mmHg 19%
23:00 +1°C° 0 mm 2 mps 471 mmHg 20%

Day after tomorrow, 8 July, Wednesday

Time Temperature Precipitation Wind Pressure Humidity
00:00 +1°C° 0 mm 1 mps 471 mmHg 22%
01:00 0°C° 0 mm 1 mps 470 mmHg 23%
02:00 -1°C° 0 mm 1 mps 470 mmHg 24%
03:00 -1°C° 0 mm 1 mps 469 mmHg 26%
04:00 -3°C° 0 mm 0 mps 468 mmHg 28%
05:00 -4°C° 0 mm 0 mps 468 mmHg 30%
06:00 -2°C° 0 mm 1 mps 469 mmHg 28%
07:00 -1°C° 0 mm 1 mps 471 mmHg 26%
08:00 +1°C° 0 mm 1 mps 472 mmHg 24%
09:00 +3°C° 0 mm 1 mps 473 mmHg 20%
10:00 +4°C° 0 mm 2 mps 475 mmHg 15%
11:00 +7°C° 0 mm 2 mps 476 mmHg 11%
12:00 +8°C° 0 mm 3 mps 476 mmHg 10%
13:00 +9°C° 0 mm 3 mps 477 mmHg 8%
14:00 +11°C° 0 mm 4 mps 477 mmHg 7%
15:00 +9°C° 0 mm 5 mps 477 mmHg 7%
16:00 +9°C° 0 mm 5 mps 476 mmHg 7%
17:00 +9°C° 0 mm 6 mps 476 mmHg 6%
18:00 +7°C° 0 mm 5 mps 475 mmHg 9%
19:00 +4°C° 0 mm 4 mps 474 mmHg 12%
20:00 +2°C° 0 mm 3 mps 472 mmHg 15%
21:00 +2°C° 0 mm 2 mps 472 mmHg 15%
22:00 +1°C° 0 mm 2 mps 472 mmHg 16%
23:00 +1°C° 0 mm 1 mps 471 mmHg 17%

9 July, Thursday

Time Temperature Precipitation Wind Pressure Humidity
00:00 0°C° 0 mm 1 mps 470 mmHg 18%
01:00 -1°C° 0 mm 1 mps 470 mmHg 20%
02:00 -1°C° 0 mm 1 mps 469 mmHg 21%
03:00 -2°C° 0 mm 1 mps 468 mmHg 23%
04:00 -4°C° 0 mm 0 mps 468 mmHg 25%
05:00 -5°C° 0 mm 0 mps 467 mmHg 27%
06:00 -4°C° 0 mm 0 mps 468 mmHg 26%
07:00 -2°C° 0 mm 0 mps 470 mmHg 25%
08:00 -1°C° 0 mm 0 mps 471 mmHg 24%
09:00 +2°C° 0 mm 0 mps 473 mmHg 19%
10:00 +4°C° 0 mm 0 mps 475 mmHg 14%
11:00 +7°C° 0 mm 0 mps 477 mmHg 9%
12:00 +9°C° 0 mm 1 mps 477 mmHg 8%
13:00 +10°C° 0 mm 1 mps 477 mmHg 7%
14:00 +11°C° 0 mm 1 mps 477 mmHg 6%
15:00 +10°C° 0 mm 2 mps 477 mmHg 6%
16:00 +10°C° 0 mm 2 mps 477 mmHg 6%
17:00 +10°C° 0 mm 3 mps 476 mmHg 7%
18:00 +8°C° 0 mm 2 mps 475 mmHg 10%
19:00 +6°C° 0 mm 2 mps 474 mmHg 14%
20:00 +4°C° 0 mm 2 mps 473 mmHg 17%
21:00 +4°C° 0 mm 1 mps 473 mmHg 20%
22:00 +4°C° 0 mm 1 mps 473 mmHg 24%
23:00 +2°C° 0 mm 0 mps 472 mmHg 27%

10 July, Friday

Time Temperature Precipitation Wind Pressure Humidity
00:00 +1°C° 0 mm 0 mps 472 mmHg 28%
01:00 +1°C° 0 mm 0 mps 471 mmHg 29%
02:00 0°C° 0 mm 0 mps 471 mmHg 31%
03:00 0°C° 0 mm 0 mps 471 mmHg 32%
04:00 0°C° 0 mm 0 mps 470 mmHg 32%
05:00 0°C° 0 mm 0 mps 470 mmHg 33%
06:00 +2°C° 0 mm 1 mps 471 mmHg 35%
07:00 +2°C° 0 mm 1 mps 472 mmHg 37%
08:00 +3°C° 0 mm 1 mps 473 mmHg 39%
09:00 +5°C° 0 mm 1 mps 475 mmHg 35%
10:00 +7°C° 0 mm 1 mps 476 mmHg 30%
11:00 +8°C° 0 mm 2 mps 477 mmHg 26%
12:00 +9°C° 0 mm 2 mps 478 mmHg 22%
13:00 +11°C° 0 mm 3 mps 478 mmHg 18%
14:00 +12°C° 0 mm 3 mps 478 mmHg 14%
15:00 +12°C° 0 mm 3 mps 478 mmHg 14%
16:00 +12°C° 0 mm 3 mps 477 mmHg 13%
17:00 +12°C° 0 mm 3 mps 477 mmHg 12%
18:00 +10°C° 0 mm 3 mps 476 mmHg 15%
19:00 +8°C° 0 mm 2 mps 475 mmHg 18%
20:00 +6°C° 0 mm 2 mps 474 mmHg 20%
21:00 +5°C° 0 mm 2 mps 474 mmHg 22%
22:00 +5°C° 0 mm 1 mps 473 mmHg 24%
23:00 +4°C° 0 mm 1 mps 473 mmHg 25%

11 July, Saturday

Time Temperature Precipitation Wind Pressure Humidity
00:00 +3°C° 0 mm 1 mps 472 mmHg 27%
01:00 +2°C° 0 mm 1 mps 471 mmHg 28%
02:00 +2°C° 0 mm 1 mps 471 mmHg 30%
03:00 +1°C° 0 mm 1 mps 470 mmHg 31%
04:00 0°C° 0 mm 1 mps 470 mmHg 32%
05:00 -1°C° 0 mm 0 mps 469 mmHg 34%
06:00 0°C° 0 mm 0 mps 470 mmHg 33%
07:00 +1°C° 0 mm 0 mps 471 mmHg 32%
08:00 +2°C° 0 mm 0 mps 473 mmHg 31%
09:00 +5°C° 0 mm 1 mps 474 mmHg 26%
10:00 +8°C° 0 mm 1 mps 476 mmHg 21%
11:00 +9°C° 0 mm 2 mps 477 mmHg 16%
12:00 +11°C° 0 mm 3 mps 478 mmHg 15%
13:00 +12°C° 0 mm 4 mps 478 mmHg 15%
14:00 +14°C° 0 mm 5 mps 478 mmHg 14%
15:00 +14°C° 0 mm 6 mps 478 mmHg 13%
16:00 +14°C° 0 mm 6 mps 478 mmHg 11%
17:00 +13°C° 0 mm 6 mps 478 mmHg 10%
18:00 +10°C° 0 mm 5 mps 476 mmHg 11%
19:00 +7°C° 0 mm 4 mps 475 mmHg 12%
20:00 +4°C° 0 mm 3 mps 474 mmHg 14%
21:00 +3°C° 0 mm 3 mps 473 mmHg 14%
22:00 +3°C° 0 mm 2 mps 473 mmHg 15%
23:00 +2°C° 0 mm 2 mps 472 mmHg 16%
Show more